Location: Unspecified
(52.4292°N, 19.3359°E)
Time: 23:14:14
(UTC+02:00)

SR - Pass Details

Date: 30 May 2024
Orbit: 580 x 858 km, 66.7° (Epoch: 12 June)

Event Time Altitude Azimuth Distance (km) Brightness Sun altitude
Rises 17:16:43 0° 222° (SW) 3,180 ? 29.8°
Reaches altitude 10° 17:19:11 10° 223° (SW) 2,214 ? 29.5°
Maximum altitude 17:24:12 78° 310° (NW) 703 ? 28.7°
Drops below altitude 10° 17:28:51 10° 38° (NE) 2,050 ? 28.0°
Sets 17:31:04 0° 39° (NE) 2,926 ? 27.7°
